Tracking 17996 objects as of 26-February-2017
HD Live streaming from Space Station
objects crossing your sky now

CANX-1

Track CANX-1 now!
10-day predictions
CANX-1 is classified as:


NORAD ID: 27847
Int'l Code: 2003-031H
Perigee: 819.7 km
Apogee: 831.5 km
Inclination: 98.7 °
Period: 101.3 minutes
Semi major axis: 7196 km
RCS: 0.0073 m2 (small)
Launch date: June 30, 2003
Source: Canada (CA)
Launch site: PLESETSK MISSILE AND SPACE COMPLEX (PKMTR)
Uplink (MHz):
Downlink (MHz): 437.880
Beacon (MHz):
Mode: 1200bps AFSK
Call sign: VA3SFL
Status: Inactive

Your satellite tracking list
Your tracking list is empty





NASA's NSSDC Master Catalog

Two Line Element Set (TLE):
1 27847U 03031H   17056.94453400 +.00000049 +00000-0 +42016-4 0  9993
2 27847 098.6850 066.3882 0008183 285.3152 074.7121 14.22038072708607
Source of the keplerian elements: AFSPC